loading
|

DELTA 1 R/B, 1729

Orbit data source: Space-Track

DELTA 1 R/B, 1729 is space debris in LEO originally from a launch on Sat, 06 Nov 1965 UTC launched from the Air Force Eastern Test Range (AFETR). Debris objects in space refer to the collection of defunct objects orbiting the Earth. Examples of debris include non-operational satellites, rocket bodies, and fragments generated from explosions, collisions, or faulty payload assembly.

Loading next visibility...
Next conjunction unknown
Loading greatness...
DELTA 1 R/B details
Identifier
1729, 1965-089B
Orbit
LEO
Last TLE update22 hours ago
Origin
Flag of USGSFC (US)
ManufacturerABL
MissionSpacecraft
Bus & MotorALTAIR, Unknown motor
Mass~60 kg wet, ~60 kg dry
Launch date (UTC)
1965-11-06 (59 years ago)
Launch vehicleUnknown
Launch site
Air Force Eastern Test Range (AFETR)
Object type
Payload
Rocket body
Debris
Shape & HBRCyl, 1.5 m
Radar Cross Section0.687 m², Medium (>0.1 m² and < 1m²)

Expand to show TLE details & history

TLE from 22 hours ago
0 DELTA 1 R/B
1 01729U 65089B   24285.81719221 -.00000065  00000-0  65138-4 0  9998
2 01729  59.3912 312.7667 0716042 149.7255  20.1134 11.97555551576952
Epoch: 2024-10-11T19:36Z
Definitive object data (Epoch: 2024-10-11T19:36:45.406Z)
Latitude6.04613°
Longitude174.1215°
Altitude1,155.353 km
Speed7.514 km/s
True Right ascension08h 36m 46s
True Declination6° 00' 44"
Sunlit
Object was in daylight at TLE epoch
Predictive object data (real-time)
Latitude-28.64306°
Longitude-165.63403°
Altitude1,409.142 km
Speed7.284 km/s
Apparent Right ascension06h 58m 18s
Apparent Declination-62° 50' 26"
Sunlit
Object is in daylight
Predictive observer data (real-time)
Local Sidereal Time12:18:11
Azimuth211.503° SW
Elevation-30.66°
Doppler factor1
Orbital elements
Apogee2,269.017 km
Perigee1,113.418 km
Semi-major axis8,069.354 km
Eccentricity0.0716042
Inclination59.3912°
RAAN312.7667°
Arg. of periapsis149.7255°
True anomaly23.19136°
Mean anomaly20.1134°
Eccentric anomaly21.62536°
Mean motion2.99423 °/min
BSTAR0.000065138
Period120.23 mins
No data available

DELTA 1 R/B Visibility forecast

Observer location: 39.9160978°, -105.1181434

Span
Click to sort rows by Start time (UTC) header in descending order
Start Az.
Max El. time (UTC)
Max El. Az.
Max El.
End time (UTC)
End Az.
19 mins2024-10-13 02:49:28.832Z187.024° SSW2024-10-13 02:59:28.832Z124.576° SE36.567°2024-10-13 03:08:28.832Z51.468° ENE
18 mins2024-10-13 04:55:28.832Z241.677° WSW2024-10-13 05:05:28.832Z323.731° NNW39.912°2024-10-13 05:13:28.832Z34.106° NE
12 mins2024-10-13 07:06:28.832Z298.334° NW2024-10-13 07:12:28.832Z342.544° N21.903°2024-10-13 07:18:28.832Z31.691° NE
9 mins2024-10-13 09:16:28.832Z335° NNW2024-10-13 09:20:28.832Z8.845° NNE20.28°2024-10-13 09:25:28.832Z56.545° ENE
13 mins2024-10-13 11:21:28.832Z326.825° NNW2024-10-13 11:27:28.832Z29.025° NE39.847°2024-10-13 11:34:28.832Z121.547° SE
10 mins2024-10-13 13:27:28.832Z294.215° NW2024-10-13 13:32:28.832Z240.232° WSW25.018°2024-10-13 13:37:28.832Z190.531° SSW